INTELSAT 14 (IS-14)

Last updated on Mon Sep 07 2026 00:02:57 GMT+0000 (Coordinated Universal Time)

1 36097U 09064A 26249.44034744 -.00000289 00000+0 00000+0 0 9995 2 36097 0.1178 84.9996 0002783 103.5138 270.5512 1.00270689 61428
UTC large
Height (km)
Speed (km/s)
/
Latitude / Longitude
Inclination (degrees)
Orbital Period (minutes)
Azimuth
Elevation
Range (km)
Doppler Factor

Next 0 passes for location: London (51.5072 / 0.1276)

No passes found over London.
INTELSAT 14 (IS-14)